SBATSBCY

Guest
Details From SBAT - ALTA FLORESTA
To SBCY - Marechal Rondon
Flight Number -
Tags generated
Created
Modified
Stats Distance 348 nm / 644 km
Max Altitude 24,500 ft / 7,468 m
Waypoints 5
Social Downloads 0
Likes 0
Share VATSIM

Download

Looking for another format? Having issues loading an existing format? Contact us
Advertisement - Login to hide

Notes

Basic altitude profile: - Ascent Rate: 2500ft/min - Ascent Speed: 250kts - Cruise Altitude: 35000ft - Cruise Speed: 420kts - Descent Rate: 1500ft/min - Descent Speed: 250kts Options: - Use NATs: yes - Use PACOTS: yes - Use low airways: yes - Use high airways: no

Route

SBAT ARINO W47 DORNO SBCY

ID Type Via Altitude Latitude Longitude Leg Dist Tot Dist Heading (true) Name
O SBAT APT - 0 ft / 0 m -9.86609˚ -56.10620˚ - 0 nm - ALTA FLORESTA
ARINO FIX - 13,400 ft / 4,084 m -10.53817˚ -56.10583˚ 40 nm 40 nm 180° / 180° -
RAPAT FIX W47 (AWY-LO) 24,500 ft / 7,468 m -12.67817˚ -56.10833˚ 128 nm 168 nm 180° / 180° -
DORNO FIX W47 (AWY-LO) 8,500 ft / 2,591 m -14.98667˚ -56.11117˚ 138 nm 307 nm 180° / 180° -
O SBCY APT - 0 ft / 0 m -15.65293˚ -56.11672˚ 40 nm 347 nm 180° / 180° Marechal Rondon

Altitude Profile

Advertisement - Login to hide

Weather


0- 5 10 15 20 25 30 35+ Temperature / ° C

Clouds and Precipitation
Forecast for 2018-05-21 18:00 UTC. Updated 6 hours ago

Ground ~20,000 ft ~40,000 ft Winds

SBAT

Details ICAO SBAT (AFL)
Name ALTA FLORESTA
Region Brazil
Timezone America/Cuiaba (UTC-4.0)
Stats Elevation 947 ft / 289 m (AMSL)
Location -9.866090° -56.106204°
Runways 1
Magnetic Variation 17.900° W

METAR

Not found

TAF

TAF SBAT 211600Z 2118/2206 18005KT 9999 FEW040 FEW045TCU TX31/2118Z TN24/2206Z BECMG 2122/2124 12005KT CAVOK RMK PCW

Decode

Departure Runways

ID Width Length Bearing (true) Bearing (mag) Surface Threshold Offset Overrun Length
03 100 ft / 30 m 8,288 ft / 2,526 m 18.48° 36.38° Asphalt 1,312 ft / 400 m 190 ft / 58 m
21 100 ft / 30 m 8,288 ft / 2,526 m 198.48° 216.38° Asphalt 0 ft / 0 m 195 ft / 59 m

SBCY

Details ICAO SBCY (CGB)
Name Marechal Rondon
Region Brazil
Timezone America/Cuiaba (UTC-4.0)
Stats Elevation 609 ft / 186 m (AMSL)
Location -15.652930° -56.116720°
Runways 1
Magnetic Variation 17.466° W

METAR

SBCY 212300Z 17003KT CAVOK 21/15 Q1015

Decode

TAF

TAF SBCY 211600Z 2118/2218 16005KT 9999 FEW040 TX26/2118Z TN12/2207Z BECMG 2120/2122 00000KT CAVOK BECMG 2205/2206 31005KT BECMG 2213/2215 9999 SCT020 RMK PCW

Decode

Destination Runways

ID Width Length Bearing (true) Bearing (mag) Surface Threshold Offset Overrun Length
17 148 ft / 45 m 7,558 ft / 2,304 m 152.83° 170.30° Asphalt 0 ft / 0 m 190 ft / 58 m
35 148 ft / 45 m 7,558 ft / 2,304 m 332.82° 350.29° Asphalt 0 ft / 0 m 190 ft / 58 m

Approach Navaids

Runway Type Ident Frequency Range Bearing (true) Bearing (mag) Slope Elevation
35 Localiser ICB 109.30 MHz 18 nm / 33 km 333.66° 351.12° - 609 ft / 186 m (AMSL)

Popular Alternatives